STARLINK-32949, 63145

Orbit data source: Space-Track

STARLINK-32949, 63145 is a payload satellite owned by SpaceX/Seattle (US) in LEO that was launched on Mon, 03 Mar 2025 UTC via an FALCON 9 launch vehicle from the Air Force Eastern Test Range (AFETR). Payload-class satellites include a variety of spacecraft equipped with specific instruments for various scientific and technological missions. These include communications satellites like Starlink; space stations such as the ISS; scientific satellites like the Hubble; Earth observation satellites from companies like Planet Labs, Umbra, and HawkEye 360; GPS; miniature CubeSats for education and research; and military/defense satellites.

Loading next visibility...
Identifier
63145, 2025-043P
Orbit
LEO
Country
Flag of USUS
Related business
Manufacturer
SpaceX/Seattle
Mission
Operational Commercial Communications
Bus & Motor
STARLINK V2M, Unknown motor
Mass
730 kg wet, ~700 kg dry
Launch date (UTC)
2025-03-03 (6 months ago)
Launch vehicle
FALCON 9
Launch site
Air Force Eastern Test Range (AFETR)
Object type
Payload
Rocket body
Debris
Shape & HBR
Box + 2 Pan, 14.5 m
Radar Cross Section
33.884 m², Large (>1 m²)

Expand to show TLE details & history
Last TLE update: 14 hours ago

TLE from 14 hours ago
0 STARLINK-32949
1 63145U 25043P   25258.35273885  .00049383  00000-0  17902-2 0  9994
2 63145  43.0035 286.7123 0002180 275.6112  84.4491 15.27614388 31111
Epoch: 2025-09-15T08:27Z
TLE epoch observation values (Epoch: 2025-09-15T08:27:56.636Z)
Latitude
-0.00003°
Longitude
165.16767°
Altitude
482.578 km
Speed
7.626 km/s
True Right ascension
19h 06m 50s
True Declination
0° 00' 00"
Sunlit
Object was in full shadow at epoch
Visualization orbit readout
Latitude
Unknown
Longitude
Unknown
Altitude
Unknown
Speed
Unknown
Apparent Right ascension
Unknown
Apparent Declination
Unknown
Sunlit
N/A
Visualization observer readout
Local Sidereal Time
14:44:22
Azimuth
Unknown
Elevation
Unknown
Doppler factor
Unknown
Orbital elements
Apogee altitude
486.387 km
Perigee altitude
483.395 km
Semi-major axis
6,863.028 km
Eccentricity
0.00022
Inclination
43.0035°
RAAN
286.7123°
Arg. of periapsis
275.6112°
True anomaly
84.47396°
Mean anomaly
84.4491°
Eccentric anomaly
84.46153°
Mean motion
3.81742 °/min
Orbital period
94.3 mins
BSTAR
0.0017902
Loading maneuver chart data...
Computing Atmospheric mass density...
Loading historical data...
Loading historical data...
Loading historical data...
Loading historical data...
Loading historical data...
Loading historical data...
Loading historical data...

Documentation

Showing up to 5 results
|